Waarnemingen

Advertentie
Mijn weer
Bale-Mulhouse, Frankrijk (7299): temperatuur & dauwpunt: 14.10.2018 15:00:00 - 20.10.2018 15:00:00 (CEST)Bale-Mulhouse, Frankrijk (7299): temperatuur 5cm: 14.10.2018 15:00:00 - 20.10.2018 15:00:00 (CEST)Bale-Mulhouse, Frankrijk (7299): temperatuur -20cm & temperatuur -100cm: 14.10.2018 15:00:00 - 20.10.2018 15:00:00 (CEST)Bale-Mulhouse, Frankrijk (7299): windsnelheid & windstoten: 14.10.2018 15:00:00 - 20.10.2018 15:00:00 (CEST)Bale-Mulhouse, Frankrijk (7299): windrichting: 14.10.2018 15:00:00 - 20.10.2018 15:00:00 (CEST)Bale-Mulhouse, Frankrijk (7299): luchtdruk: 14.10.2018 15:00:00 - 20.10.2018 15:00:00 (CEST)Bale-Mulhouse, Frankrijk (7299): zicht: 14.10.2018 15:00:00 - 20.10.2018 15:00:00 (CEST)Bale-Mulhouse, Frankrijk (7299): neerslag: 14.10.2018 15:00:00 - 20.10.2018 15:00:00 (CEST)
Datum & Tijd tt [°C] td [°C] tt 5cm [°C] tt -20cm [°C] tt -100cm [°C] ff [km/u] ff [kn] fx [km/u] fx [kn] dd ppp [hPa] vv [km] rr [mm]
20.10.2018 15:00:00 16,6 10,9 18,5 14,1 16,6 9 5 17 9 NNW 1027,7 4,8 0,0
20.10.2018 14:00:00 15,1 10,5 16,1 14,0 16,6 6 4 22 12 NNW 1028,2 4,0 0,0
20.10.2018 13:00:00 13,1 10,6 14,1 13,9 16,6 13 7 22 12 NW 1028,9 3,5 0,0
20.10.2018 12:00:00 11,1 10,0 11,0 13,9 16,7 8 5 16 9 NW 1029,2 2,9 0,0
20.10.2018 11:00:00 9,2 9,1 9,3 13,9 16,6 6 3 14 8 NW 1029,1 0,8 0,0
20.10.2018 10:00:00 8,3 8,2 8,4 13,9 16,6 5 3 16 8 Z 1029,1 0,7 0,2
20.10.2018 09:00:00 7,9 7,9 6,2 14,0 16,6 6 3 9 5 ZZO 1028,5 0,7 0,0
20.10.2018 08:00:00 5,8 5,8 3,5 14,1 16,7 3 2 9 5 ZZW 1028,4 0,1 0,0
20.10.2018 07:00:00 4,9 4,8 1,7 14,3 16,7 3 2 16 9 WNW 1027,9 0,1 0,0
20.10.2018 06:00:00 4,6 4,5 1,4 14,4 16,7 4 2 7 4 ZW 1026,9 0,2 0,0
20.10.2018 05:00:00 4,9 4,9 1,9 14,5 16,7 4 2 7 4 ZW 1026,2 0,1 0,0
20.10.2018 04:00:00 6,1 6,0 2,2 14,7 16,7 3 2 6 3 WZW 1026,0 0,1 0,0
20.10.2018 03:00:00 5,1 4,7 2,3 14,8 16,7 3 1 3 2 NNW 1026,0 0,1 0,0
20.10.2018 02:00:00 6,0 5,6 2,6 15,0 16,7 0 0 5 3 N 1025,6 0,1 0,0
20.10.2018 01:00:00 6,3 6,0 3,1 15,1 16,7 4 2 5 3 Z 1025,4 0,1 0,0
20.10.2018 00:00:00 7,5 7,2 3,6 15,2 16,7 0 0 8 4 N 1025,3 1,0 0,0
19.10.2018 23:00:00 7,1 6,7 3,9 15,3 16,7 4 2 6 4 ZW 1025,0 1,0 0,0
19.10.2018 22:00:00 7,2 6,6 4,8 15,4 16,7 3 1 6 3 W 1024,6 1,4 0,0
19.10.2018 21:00:00 9,3 8,1 6,2 15,5 16,7 4 2 9 5 Z 1023,6 1,8 0,0
19.10.2018 20:00:00 11,0 9,1 7,5 15,5 16,8 6 4 10 5 ZW 1022,9 1,8 0,0
19.10.2018 19:00:00 12,2 9,0 8,8 15,5 16,7 4 2 13 7 ZZW 1022,1 6 0,0
19.10.2018 18:00:00 14,1 10,3 13,4 15,4 16,8 10 6 17 9 NNW 1021,4 7 0,0
19.10.2018 17:00:00 15,6 10,4 16,8 15,3 16,8 13 7 25 13 N 1021,0 9 0,0
19.10.2018 16:00:00 15,9 10,6 18,0 15,1 16,8 11 6 19 10 N 1020,8 9 0,0
19.10.2018 15:00:00 15,1 10,9 16,0 15,0 16,8 10 5 22 12 NW 1021,1 6 0,0
19.10.2018 14:00:00 13,8 10,4 15,7 14,9 16,8 12 6 20 11 N 1021,7 6 0,0
19.10.2018 13:00:00 13,3 10,3 14,8 14,8 16,8 11 6 19 11 NNW 1022,1 5 0,0
19.10.2018 12:00:00 12,1 10,0 12,3 14,8 16,8 4 2 12 6 NNO 1022,5 4,0 0,0
19.10.2018 11:00:00 11,0 10,1 10,9 14,8 16,8 9 5 14 7 NNW 1022,9 2,5 0,0
19.10.2018 10:00:00 10,6 10,3 10,3 14,8 16,8 5 3 16 9 N 1022,6 1,2 0,0
19.10.2018 09:00:00 10,2 9,9 10,2 14,8 16,8 6 3 11 6 NNO 1022,2 0,2 0,0
19.10.2018 08:00:00 10,5 10,2 10,4 14,8 16,8 2 1 11 6 NW 1021,5 0,3 0,0
19.10.2018 07:00:00 10,7 10,4 10,6 14,9 16,8 3 2 9 5 NW 1020,9 1,5 0,0
19.10.2018 06:00:00 10,9 10,6 10,8 14,9 16,8 5 3 14 8 WNW 1020,6 1,5 0,0
19.10.2018 05:00:00 11,0 10,5 10,3 15,0 16,8 9 5 14 7 WNW 1020,3 1,8 0,0
19.10.2018 04:00:00 10,5 10,3 5,3 15,1 16,8 9 5 12 7 WNW 1020,1 1,2 0,2
19.10.2018 03:00:00 9,3 9,2 5,7 15,2 16,8 7 4 13 7 W 1020,3 0,5 0,0
19.10.2018 02:00:00 10,3 9,8 6,4 15,3 16,9 7 4 15 8 W 1020,5 2,0 0,0
19.10.2018 01:00:00 9,8 9,5 5,8 15,4 16,8 11 6 15 8 NNW 1020,3 2,8 0,0
19.10.2018 00:00:00 10,7 9,1 7,1 15,5 16,9 3 2 12 6 NW 1020,3 7 0,0
18.10.2018 23:00:00 11,4 10,0 7,5 15,5 16,9 4 2 16 9 WNW 1020,0 8 0,0
18.10.2018 22:00:00 10,3 8,6 7,9 15,5 16,9 5 3 9 5 WZW 1020,0 8 0,0
18.10.2018 21:00:00 13,6 10,4 9,5 15,6 16,9 4 2 14 8 NNO 1019,1 10 0,0
18.10.2018 20:00:00 15,7 10,7 12,7 15,5 16,9 6 3 18 10 N 1018,2 15 0,0
18.10.2018 19:00:00 17,3 10,9 15,4 15,4 16,9 10 6 25 14 N 1017,4 15 0,0
18.10.2018 18:00:00 19,3 11,1 19,0 15,3 16,9 10 5 20 11 N 1016,7 15 0,0
18.10.2018 17:00:00 19,7 11,2 20,1 15,1 16,9 10 6 21 11 N 1016,8 10 0,0
18.10.2018 16:00:00 19,2 10,7 20,6 14,9 16,9 16 8 22 12 NNW 1017,1 10 0,0
18.10.2018 15:00:00 18,7 10,5 20,0 14,7 16,9 16 9 30 16 N 1017,5 10 0,0
18.10.2018 14:00:00 17,8 9,9 19,7 14,5 16,9 12 7 22 12 NNW 1018,2 10 0,0
18.10.2018 13:00:00 16,3 10,2 17,7 14,5 16,9 7 4 18 10 NNO 1018,8 8 0,0
18.10.2018 12:00:00 14,9 10,1 17,0 14,5 16,9 5 3 11 6 N 1019,5 8 0,0
18.10.2018 11:00:00 13,7 9,3 13,2 14,5 16,9 0 0 6 3 N 1019,8 6 0,0
18.10.2018 10:00:00 10,3 8,9 6,3 14,6 16,9 0 0 4 2 N 1019,8 5 0,0
18.10.2018 09:00:00 5,5 5,4 1,8 14,7 17,0 2 1 5 3 ZZW 1020,1 3,0 0,0
18.10.2018 08:00:00 4,2 3,8 1,6 14,9 17,0 3 2 5 3 ZZW 1019,9 0,2 0,0
18.10.2018 07:00:00 5,7 5,6 2,2 15,0 17,0 4 2 7 4 ZW 1019,4 1,0 0,0
18.10.2018 06:00:00 6,4 6,1 2,7 15,1 17,0 5 3 6 4 ZW 1019,1 1,0 0,0
18.10.2018 05:00:00 5,5 5,1 2,8 15,3 17,0 2 1 4 2 W 1019,0 1,0 0,0
18.10.2018 04:00:00 6,8 6,5 3,5 15,4 17,0 0 0 4 2 N 1018,8 0,2 0,0
18.10.2018 03:00:00 7,6 7,0 4,3 15,5 17,0 0 0 6 3 N 1018,9 1,3 0,0
18.10.2018 02:00:00 7,7 6,6 4,3 15,6 17,0 3 2 5 3 ZZO 1018,9 1,6 0,0
18.10.2018 01:00:00 7,2 5,8 4,8 15,7 17,0 2 1 3 2 ZZW 1019,1 1,9 0,0
18.10.2018 00:00:00 8,1 6,9 5,8 15,9 17,0 2 1 6 3 Z 1019,1 10 0,0
17.10.2018 23:00:00 10,0 7,6 6,6 15,9 17,0 4 2 9 5 Z 1019,0 10 0,0
17.10.2018 22:00:00 11,4 8,6 7,5 15,9 17,0 0 0 8 4 N 1018,5 10 0,0
17.10.2018 21:00:00 12,6 8,1 9,3 16,0 17,0 6 3 12 6 WZW 1017,7 12 0,0
17.10.2018 20:00:00 15,0 9,4 10,0 15,9 17,0 3 2 9 5 W 1017,3 15 0,0
17.10.2018 19:00:00 16,8 9,0 12,8 15,8 17,0 6 3 16 9 NW 1016,4 25 0,0
17.10.2018 18:00:00 20,2 9,7 19,9 15,6 17,0 10 5 21 11 N 1015,7 25 0,0
17.10.2018 17:00:00 21,5 8,7 22,2 15,4 17,0 13 7 18 10 N 1015,8 25 0,0
17.10.2018 16:00:00 21,9 7,3 24,3 15,2 17,0 8 5 16 9 N 1016,0 25 0,0
17.10.2018 15:00:00 21,3 6,8 23,4 15,0 17,0 6 4 19 10 N 1016,3 25 0,0
17.10.2018 14:00:00 21,1 7,3 22,8 14,8 17,0 11 6 21 11 NNW 1016,9 31 0,0
17.10.2018 13:00:00 19,7 7,4 21,3 14,7 17,1 3 2 13 7 ONO 1017,8 15 0,0
17.10.2018 12:00:00 18,0 8,5 18,4 14,7 17,1 3 2 8 5 N 1018,8 15 0,0
17.10.2018 11:00:00 15,1 7,9 15,5 14,7 17,0 2 1 9 5 N 1019,3 15 0,0
17.10.2018 10:00:00 12,4 8,1 9,8 14,8 17,1 0 0 8 4 N 1019,6 15 0,0
17.10.2018 09:00:00 9,1 6,9 2,9 15,0 17,1 6 3 10 5 ZZO 1019,8 15 0,0
17.10.2018 08:00:00 5,6 4,9 2,6 15,1 17,1 2 1 9 5 Z 1020,1 10 0,0
17.10.2018 07:00:00 6,8 6,1 3,0 15,3 17,1 3 2 12 6 ZZW 1019,9 9 0,0
17.10.2018 06:00:00 6,9 6,0 2,5 15,4 17,1 10 5 13 7 Z 1019,8 8 0,0
17.10.2018 05:00:00 5,4 4,8 2,6 15,6 17,1 7 4 11 6 Z 1019,9 9 0,2
17.10.2018 04:00:00 6,4 5,8 2,9 15,8 17,1 3 1 6 3 ZZO 1020,3 2,3 0,0
17.10.2018 03:00:00 6,2 5,8 2,9 15,9 17,1 0 0 4 2 N 1020,7 3,1 0,0
17.10.2018 02:00:00 6,2 4,5 3,5 16,1 17,1 3 1 5 3 ZW 1020,7 3,3 0,0
17.10.2018 01:00:00 8,0 6,3 4,3 16,2 17,1 4 2 6 3 ZZO 1020,5 5 0,0
17.10.2018 00:00:00 9,1 6,9 5,4 16,3 17,1 3 2 6 4 Z 1020,3 20 0,0
16.10.2018 23:00:00 9,9 7,3 6,2 16,3 17,1 2 1 8 4 Z 1020,1 20 0,0
16.10.2018 22:00:00 11,6 7,5 7,6 16,4 17,1 2 1 7 4 Z 1019,7 20 0,0
16.10.2018 21:00:00 14,1 8,7 10,0 16,4 17,1 4 2 11 6 N 1019,1 20 0,0
16.10.2018 20:00:00 16,1 8,6 11,9 16,3 17,1 5 3 19 10 NW 1018,7 20 0,0
16.10.2018 19:00:00 18,3 8,5 17,0 16,1 17,1 13 7 19 10 NNW 1017,9 20 0,0
16.10.2018 18:00:00 21,5 8,7 21,6 15,9 17,1 13 7 25 14 N 1017,0 20 0,0
16.10.2018 17:00:00 23,2 8,5 24,4 15,7 17,1 15 8 23 12 N 1016,8 20 0,0
16.10.2018 16:00:00 23,5 9,1 26,3 15,5 17,1 11 6 20 11 N 1016,8 25 0,0
16.10.2018 15:00:00 23,1 7,2 26,0 15,2 17,1 5 3 16 9 ONO 1017,0 27 0,0
16.10.2018 14:00:00 21,9 7,3 22,8 15,1 17,1 5 3 17 9 O 1017,4 20 0,0
16.10.2018 13:00:00 19,8 7,5 20,8 15,0 17,1 6 3 16 9 NO 1017,9 15 0,0
16.10.2018 12:00:00 18,1 7,2 20,4 15,0 17,1 5 3 12 7 NNO 1018,4 20 0,0
16.10.2018 11:00:00 15,8 7,8 15,5 15,0 17,2 5 3 10 5 OZO 1018,6 15 0,0
16.10.2018 10:00:00 12,3 7,6 8,7 15,1 17,2 2 1 6 4 Z 1019,0 12 0,0
16.10.2018 09:00:00 7,8 6,6 3,7 15,3 17,2 5 3 7 4 Z 1019,1 12 0,0
16.10.2018 08:00:00 6,4 5,2 3,0 15,4 17,2 5 3 8 5 ZO 1019,0 12 0,0
16.10.2018 07:00:00 6,0 5,0 2,9 15,5 17,2 3 1 6 4 Z 1018,8 15 0,0
16.10.2018 06:00:00 6,6 5,7 2,9 15,7 17,2 5 3 11 6 ZO 1018,6 15 0,0
16.10.2018 05:00:00 7,5 6,1 3,3 15,9 17,2 6 3 11 6 Z 1018,1 15 0,0
16.10.2018 04:00:00 7,8 5,8 3,7 16,0 17,2 6 3 9 5 ZO 1017,7 15 0,0
16.10.2018 03:00:00 7,4 6,8 3,6 16,1 17,2 6 3 10 5 Z 1017,6 9 0,0
16.10.2018 02:00:00 8,5 7,6 3,9 16,3 17,2 7 4 8 5 ZZO 1017,2 7 0,0
16.10.2018 01:00:00 8,0 6,3 4,2 16,4 17,2 2 1 5 3 ZO 1016,8 6 0,0
16.10.2018 00:00:00 8,4 6,2 5,0 16,6 17,2 2 1 6 4 ZO 1016,5 15 0,0
15.10.2018 23:00:00 9,4 7,0 6,0 16,6 17,2 5 3 6 4 ZZW 1016,0 20 0,0
15.10.2018 22:00:00 11,2 8,6 6,9 16,7 17,2 0 0 7 4 N 1015,3 20 0,0
15.10.2018 21:00:00 11,8 7,9 8,5 16,8 17,2 2 1 8 4 ZW 1014,6 25 0,0
15.10.2018 20:00:00 14,7 7,7 10,4 16,7 17,2 6 4 10 6 WZW 1013,9 25 0,0
15.10.2018 19:00:00 17,6 7,9 13,5 16,6 17,2 9 5 19 10 NNW 1013,0 30 0,0
15.10.2018 18:00:00 22,5 8,9 21,8 16,5 17,2 8 5 18 10 N 1012,1 30 0,0
15.10.2018 17:00:00 24,0 8,4 24,3 16,2 17,2 9 5 19 11 NNO 1011,6 30 0,0
15.10.2018 16:00:00 23,9 9,1 26,0 16,0 17,2 10 5 23 12 N 1011,4 30 0,0
15.10.2018 15:00:00 23,2 8,8 24,6 15,8 17,2 10 5 19 10 NNO 1011,7 30 0,0
15.10.2018 14:00:00 22,4 8,1 22,8 15,7 17,2 6 3 15 8 NNW 1012,2 30 0,0
15.10.2018 13:00:00 20,5 7,8 22,5 15,6 17,2 8 4 16 9 NNO 1012,9 25 0,0
15.10.2018 12:00:00 18,9 7,3 20,4 15,6 17,2 3 1 11 6 ZZO 1013,6 25 0,0
15.10.2018 11:00:00 16,4 7,3 16,8 15,7 17,2 4 2 10 6 ZO 1014,1 25 0,0
15.10.2018 10:00:00 14,0 8,4 12,6 15,8 17,2 2 1 7 4 ZZO 1014,5 25 0,0
15.10.2018 09:00:00 10,8 7,8 5,0 15,9 17,2 4 2 11 6 Z 1014,5 25 0,0
15.10.2018 08:00:00 7,8 6,3 4,6 16,1 17,2 6 3 13 7 ZZW 1014,5 25 0,0
15.10.2018 07:00:00 8,3 6,6 4,7 16,2 17,2 3 2 15 8 Z 1013,9 25 0,0
15.10.2018 06:00:00 9,8 7,2 6,1 16,3 17,2 9 5 16 9 Z 1013,6 30 0,0
15.10.2018 05:00:00 10,1 7,0 7,2 16,5 17,2 7 4 14 7 Z 1013,5 30 0,0
15.10.2018 04:00:00 10,1 7,5 7,9 16,6 17,2 7 4 14 8 ZZO 1013,5 17 0,0
15.10.2018 03:00:00 11,1 8,1 8,0 16,7 17,2 10 5 18 10 Z 1013,6 20 0,0
15.10.2018 02:00:00 10,7 7,6 7,4 16,9 17,2 7 4 15 8 ZZO 1013,4 19 0,0
15.10.2018 01:00:00 11,1 8,5 7,8 17,0 17,2 10 5 12 7 ZZO 1013,1 24 0,0
15.10.2018 00:00:00 12,1 8,4 8,8 17,1 17,2 3 2 12 7 Z 1012,8 40 0,0
14.10.2018 23:00:00 14,7 9,7 8,6 17,2 17,2 11 6 19 11 ZZO 1012,2 40 0,0
14.10.2018 22:00:00 12,7 8,2 9,1 17,2 17,2 8 4 10 5 ZZW 1011,8 40 0,0
14.10.2018 21:00:00 14,3 8,9 10,0 17,3 17,2 5 3 17 9 ZZW 1011,2 40 0,0
14.10.2018 20:00:00 19,8 9,1 15,1 17,2 17,2 11 6 22 12 OZO 1010,4 40 0,0
14.10.2018 19:00:00 21,7 8,9 19,2 17,1 17,2 10 5 20 11 O 1010,1 40 0,0
14.10.2018 18:00:00 24,1 8,9 23,4 16,9 17,2 12 6 22 12 O 1009,6 40 0,0
14.10.2018 17:00:00 25,7 9,1 26,2 16,6 17,1 9 5 24 13 NO 1009,5 40 0,0
14.10.2018 16:00:00 25,7 9,1 28,8 16,4 17,1 4 2 17 9 OZO 1009,7 40 0,0
14.10.2018 15:00:00 25,8 9,6 28,3 16,2 17,1 4 2 18 10 ZZO 1010,1 40 0,0

tt = temperatuur
td = dauwpunt
tt 5cm = temperatuur 5cm
tt -20cm = temperatuur -20cm
tt -100cm = temperatuur -100cm
ff = windsnelheid
fx = windstoten
dd = windrichting
ppp = luchtdruk
vv = zicht
rr = neerslag

Weerstations in de omgeving